DW9005 Weather Reports


Display with metric or nautical units.
time (UTC)temp
F
wind
direction
speed
MPH
gust
MPH
rain 1hr
in
rain 24hr
in
rain mn
in
humidity
%
barometer
mb
20260509124610 62 248 0.0 0.0 0.00 0.00 0.00 92 1012.6
20260509123057 62 250 0.0 0.0 0.00 0.00 0.00 93 1012.5
20260509121541 62 207 0.0 0.0 0.00 0.00 0.00 92 1012.3
20260509120039 0 0.0 0.0 0.00 0.00 0.00 1012.4
20260509114514 0 0.0 0.0 0.00 0.00 0.00 1012.6
20260509113009 0 0.0 0.0 0.00 0.00 0.00 1012.4
20260509111548 0 0.0 0.0 0.00 0.00 0.00 1012.5
20260509110047 0 0.0 0.0 0.00 0.00 0.00 1012.4
20260509104523 0 0.0 0.0 0.00 0.00 0.00 1011.9
20260509103018 0 0.0 0.0 0.00 0.00 0.00 1011.8
20260509101602 0 0.0 0.0 0.00 0.00 0.00 1011.9
20260509100054 0 0.0 0.0 0.00 0.00 0.00 1011.3
20260509094539 0 0.0 0.0 0.00 0.00 0.00 1011.1
20260509093035 61 113 0.0 0.0 0.00 0.00 0.00 93 1011.7
20260509091535 61 149 0.0 0.0 0.00 0.00 0.00 93 1010.8
20260509090029 59 199 0.0 0.0 0.00 0.00 0.00 93 1011.1
20260509084529 58 106 0.0 0.0 0.00 0.00 0.00 92 1011.9
20260509083025 58 254 0.0 0.0 0.00 0.00 0.00 92 1012.6
20260509081525 58 253 0.0 0.0 0.00 0.00 0.00 92 1012.7
20260509080022 58 251 0.0 0.0 0.00 0.00 0.00 93 1012.2
20260509074504 57 316 0.0 0.0 0.00 0.00 0.00 93 1012.3
20260509073011 57 316 0.0 0.0 0.00 0.00 0.00 93 1012.3
20260509071545 56 316 0.0 0.0 0.00 0.00 0.00 93 1012.3
20260509070048 56 209 0.0 0.0 0.00 0.00 0.00 93 1012.0
20260509064526 55 211 0.0 0.0 0.00 0.00 0.00 92 1012.4
20260509063028 55 211 0.0 0.0 0.00 0.00 0.00 92 1012.0
20260509061506 55 211 0.0 0.0 0.00 0.00 0.00 92 1011.8
20260509060005 55 211 0.0 0.0 0.00 0.00 0.00 92 1012.2
20260509054553 55 211 0.0 0.0 0.00 0.00 0.00 92 1012.7
20260509053044 56 211 0.0 0.0 0.00 0.00 0.00 92 1013.0
20260509051524 56 210 0.0 0.0 0.00 0.00 0.00 92 1012.9
20260509050022 56 210 0.0 0.0 0.00 0.00 0.00 92 1013.2
20260509044510 56 211 0.0 0.0 0.00 0.00 0.00 92 1013.1
20260509043012 56 211 0.0 0.0 0.00 0.00 0.00 92 1013.1
20260509041507 57 211 0.0 0.0 0.00 0.00 0.00 91 1013.1
20260509040005 57 215 0.0 0.0 0.00 0.00 0.00 91 1013.1
20260509034504 57 213 0.0 0.0 0.00 0.00 0.00 91 1013.1
20260509033003 57 216 0.0 0.0 0.00 0.00 0.00 91 1013.2
20260509031503 57 196 0.0 0.0 0.00 0.00 0.00 91 1012.9
20260509030002 57 159 0.0 0.0 0.00 0.00 0.00 91 1013.2
20260509024502 58 177 0.0 0.0 0.00 0.00 0.00 91 1013.3
20260509023044 58 177 0.0 0.0 0.00 0.00 0.00 91 1013.6
20260509021545 58 177 0.0 0.0 0.00 0.00 0.00 91 1013.7
20260509020026 58 177 0.0 0.0 0.00 0.00 0.00 90 1013.3
20260509014525 59 177 0.0 0.0 0.00 0.00 0.00 90 1013.1
20260509013008 59 177 0.0 0.0 0.00 0.00 0.00 89 1013.1
20260509011507 60 177 0.0 0.0 0.00 0.00 0.00 89 1013.2
20260509010050 60 177 0.0 0.0 0.00 0.00 0.00 88 1013.2
20260509004605 61 190 0.0 0.0 0.00 0.00 0.00 87 1013.1
20260509003031 61 190 0.0 0.0 0.00 0.00 0.00 86 1013.2
20260509001531 62 89 0.0 0.0 0.00 0.00 0.00 85 1013.2
20260509000010 62 124 0.0 0.0 0.00 0.00 0.00 84 1013.6
20260508234509 62 124 0.0 0.0 0.00 0.00 0.00 83 1014.3
20260508233051 63 172 0.0 0.0 0.00 0.00 0.00 82 1014.2
20260508231554 63 169 0.0 0.0 0.00 0.00 0.00 80 1014.5
20260508230033 64 168 0.0 0.0 0.00 0.00 0.00 80 1014.2
20260508224533 64 171 0.0 0.0 0.00 0.00 0.00 79 1014.4
20260508223033 64 179 0.0 0.0 0.00 0.00 0.00 78 1014.2
20260508221515 64 192 0.0 0.0 0.00 0.00 0.00 78 1013.9
20260508220101 65 174 0.0 0.0 0.00 0.00 0.00 75 1014.0
20260508214606 65 178 0.0 0.0 0.00 0.00 0.00 74 1014.5
20260508213038 65 181 0.0 0.0 0.00 0.00 0.00 74 1014.4
20260508211537 65 126 0.0 0.0 0.00 0.00 0.00 73 1014.5
20260508210020 66 176 0.0 0.0 0.00 0.00 0.00 74 1014.5
20260508204525 66 94 0.0 0.0 0.00 0.00 0.00 73 1014.4
20260508203102 66 138 0.0 0.0 0.00 0.00 0.00 72 1014.6
20260508201600 66 154 0.0 0.0 0.00 0.00 0.00 70 1014.8
20260508200041 66 171 0.0 0.0 0.00 0.00 0.00 68 1014.7
20260508194540 67 202 0.0 0.0 0.00 0.00 0.00 68 1014.8
20260508193022 67 161 0.0 0.0 0.00 0.00 0.00 68 1014.9
20260508191527 67 166 0.0 0.0 0.00 0.00 0.00 65 1014.8
20260508190003 67 125 0.0 0.0 0.00 0.00 0.00 62 1014.9
20260508184502 67 232 0.0 0.0 0.00 0.00 0.00 62 1015.4
20260508183048 67 128 0.0 0.0 0.00 0.00 0.00 62 1015.5
20260508181557 68 360 0.0 0.0 0.00 0.00 0.00 62 1015.7
20260508180028 68 227 0.0 0.0 0.00 0.00 0.00 61 1016.1
20260508174524 68 211 0.0 0.0 0.00 0.00 0.00 60 1016.0
20260508173009 68 118 0.0 0.0 0.00 0.00 0.00 59 1016.4
20260508171506 67 317 0.0 0.0 0.00 0.00 0.00 61 1016.8
20260508170047 67 130 0.0 0.0 0.00 0.00 0.00 63 1016.9
20260508164546 67 119 0.0 0.0 0.00 0.00 0.00 61 1017.1
20260508163027 67 109 0.0 0.0 0.00 0.00 0.00 60 1017.4
20260508161528 66 296 0.0 0.0 0.00 0.00 0.00 61 1017.4
20260508160012 66 135 0.0 0.0 0.00 0.00 0.00 67 1017.6
20260508154504 65 148 0.0 0.0 0.00 0.00 0.00 66 1017.7
20260508153046 63 336 0.0 0.0 0.00 0.00 0.00 71 1017.9
20260508151546 63 343 0.0 0.0 0.00 0.00 0.00 70 1018.2
20260508150022 62 133 0.0 0.0 0.00 0.00 0.00 73 1018.4
20260508144519 62 332 0.0 0.0 0.00 0.00 0.00 72 1018.2
20260508143001 62 329 0.0 0.0 0.00 0.00 0.00 70 1018.5
20260508141606 61 244 0.0 0.0 0.00 0.00 0.00 77 1018.3
20260508140041 59 18 0.0 0.0 0.00 0.00 0.00 86 1018.6
20260508134535 57 322 0.0 0.0 0.00 0.00 0.00 88 1018.7
20260508133016 56 337 0.0 0.0 0.00 0.00 0.00 90 1018.4
20260508131512 55 319 0.0 0.0 0.00 0.00 0.00 91 1018.3
20260508130057 54 341 0.0 0.0 0.00 0.00 0.00 92 1018.3